Time,TemperatureF,DewpointF,PressureIn,WindDirection,WindDirectionDegrees,WindSpeedMPH,WindSpeedGustMPH,Humidity,HourlyPrecipIn,Conditions,Clouds,dailyrainin,SolarRadiationWatts/m^2,SoftwareType,DateUTC
2013-02-06 00:01:00,37.0,30.0,-100.00,South,171,3.0,10.0,75,0.00,,,0.00,0.000000,,2013-02-06 07:01:00,
2013-02-06 00:11:00,37.0,30.0,-100.00,South,171,3.0,10.0,75,0.00,,,0.00,0.000000,,2013-02-06 07:11:00,
2013-02-06 00:32:00,39.0,26.0,-100.00,SE,130,3.0,8.0,60,0.00,,,0.00,0.000000,,2013-02-06 07:32:00,
2013-02-06 00:42:00,39.0,26.0,-100.00,SE,130,3.0,8.0,60,0.00,,,0.00,0.000000,,2013-02-06 07:42:00,
2013-02-06 00:52:00,39.0,26.0,-100.00,SE,130,3.0,8.0,60,0.00,,,0.00,0.000000,,2013-02-06 07:52:00,
2013-02-06 01:01:00,39.0,26.0,-100.00,SE,130,3.0,8.0,60,0.00,,,0.00,0.000000,,2013-02-06 08:01:00,
2013-02-06 01:11:00,39.0,26.0,-100.00,SE,130,3.0,8.0,60,0.00,,,0.00,0.000000,,2013-02-06 08:11:00,
2013-02-06 01:42:00,39.0,24.0,-100.00,SE,127,6.0,9.0,54,0.00,,,0.00,0.000000,,2013-02-06 08:42:00,
2013-02-06 01:53:00,39.0,24.0,-100.00,SE,127,6.0,9.0,54,0.00,,,0.00,0.000000,,2013-02-06 08:53:00,
2013-02-06 02:01:00,39.0,24.0,-100.00,SE,127,6.0,9.0,54,0.00,,,0.00,0.000000,,2013-02-06 09:01:00,
2013-02-06 02:11:00,39.0,24.0,-100.00,SE,127,6.0,9.0,54,0.00,,,0.00,0.000000,,2013-02-06 09:11:00,
2013-02-06 02:32:00,37.0,27.0,-100.00,SW,228,4.0,10.0,68,0.00,,,0.00,0.000000,,2013-02-06 09:32:00,
2013-02-06 02:42:00,37.0,27.0,-100.00,SW,228,4.0,10.0,68,0.00,,,0.00,0.000000,,2013-02-06 09:42:00,
2013-02-06 02:52:00,37.0,27.0,-100.00,SW,228,4.0,10.0,68,0.00,,,0.00,0.000000,,2013-02-06 09:52:00,
2013-02-06 03:01:00,37.0,27.0,-100.00,SW,228,4.0,10.0,68,0.00,,,0.00,0.000000,,2013-02-06 10:01:00,
2013-02-06 03:11:00,37.0,27.0,-100.00,SW,228,4.0,10.0,68,0.00,,,0.00,0.000000,,2013-02-06 10:11:00,
2013-02-06 03:32:00,36.0,29.0,-100.00,WNW,286,3.0,5.0,75,0.00,,,0.00,0.000000,,2013-02-06 10:32:00,
2013-02-06 03:42:00,36.0,29.0,-100.00,WNW,286,3.0,5.0,75,0.00,,,0.00,0.000000,,2013-02-06 10:42:00,
2013-02-06 03:52:00,36.0,29.0,-100.00,WNW,286,3.0,5.0,75,0.00,,,0.00,0.000000,,2013-02-06 10:52:00,
2013-02-06 04:01:00,36.0,29.0,-100.00,WNW,286,3.0,5.0,75,0.00,,,0.00,0.000000,,2013-02-06 11:01:00,
2013-02-06 04:11:00,36.0,29.0,-100.00,WNW,286,3.0,5.0,75,0.00,,,0.00,0.000000,,2013-02-06 11:11:00,
2013-02-06 04:32:00,33.0,31.0,-100.00,NW,323,4.0,11.0,91,0.01,,,0.01,0.000000,,2013-02-06 11:32:00,
2013-02-06 04:42:00,33.0,31.0,-100.00,NW,323,4.0,11.0,91,0.01,,,0.01,0.000000,,2013-02-06 11:42:00,
2013-02-06 04:53:00,33.0,31.0,-100.00,NW,323,4.0,11.0,91,0.01,,,0.01,0.000000,,2013-02-06 11:53:00,
2013-02-06 05:01:00,33.0,31.0,-100.00,NW,323,4.0,11.0,91,0.01,,,0.01,0.000000,,2013-02-06 12:01:00,
2013-02-06 05:12:00,33.0,31.0,-100.00,NW,323,4.0,11.0,91,0.01,,,0.01,0.000000,,2013-02-06 12:12:00,
2013-02-06 05:32:00,33.0,32.0,-100.00,SW,214,2.0,5.0,97,0.00,,,0.01,0.000000,,2013-02-06 12:32:00,
2013-02-06 05:42:00,33.0,32.0,-100.00,SW,214,2.0,5.0,97,0.00,,,0.01,0.000000,,2013-02-06 12:42:00,
2013-02-06 05:52:00,33.0,32.0,-100.00,SW,214,2.0,5.0,97,0.00,,,0.01,0.000000,,2013-02-06 12:52:00,
2013-02-06 06:01:00,33.0,32.0,-100.00,SW,214,2.0,5.0,97,0.00,,,0.01,0.000000,,2013-02-06 13:01:00,
2013-02-06 06:11:00,33.0,32.0,-100.00,SW,214,2.0,5.0,97,0.00,,,0.01,0.000000,,2013-02-06 13:11:00,
2013-02-06 06:32:00,33.0,32.0,-100.00,South,182,6.0,11.0,96,0.00,,,0.01,0.000000,,2013-02-06 13:32:00,
2013-02-06 06:42:00,33.0,32.0,-100.00,South,182,6.0,11.0,96,0.00,,,0.01,0.000000,,2013-02-06 13:42:00,
2013-02-06 06:52:00,33.0,32.0,-100.00,South,182,6.0,11.0,96,0.00,,,0.01,0.000000,,2013-02-06 13:52:00,
2013-02-06 07:01:00,33.0,32.0,-100.00,South,182,6.0,11.0,96,0.00,,,0.01,0.000000,,2013-02-06 14:01:00,
2013-02-06 07:11:00,33.0,32.0,-100.00,South,182,6.0,11.0,96,0.00,,,0.01,0.000000,,2013-02-06 14:11:00,
2013-02-06 07:32:00,33.0,32.0,-100.00,SE,142,2.0,7.0,97,0.00,,,0.01,0.000000,,2013-02-06 14:32:00,
2013-02-06 07:42:00,33.0,32.0,-100.00,SE,142,2.0,7.0,97,0.00,,,0.01,0.000000,,2013-02-06 14:42:00,
2013-02-06 07:52:00,33.0,32.0,-100.00,SE,142,2.0,7.0,97,0.00,,,0.01,0.000000,,2013-02-06 14:52:00,
2013-02-06 08:01:00,33.0,32.0,-100.00,SE,142,2.0,7.0,97,0.00,,,0.01,0.000000,,2013-02-06 15:01:00,
2013-02-06 08:11:00,33.0,32.0,-100.00,SE,142,2.0,7.0,97,0.00,,,0.01,0.000000,,2013-02-06 15:11:00,
2013-02-06 08:32:00,32.0,31.0,-100.00,West,261,2.0,8.0,96,0.00,,,0.01,3.000000,,2013-02-06 15:32:00,
2013-02-06 08:42:00,32.0,31.0,-100.00,West,261,2.0,8.0,96,0.00,,,0.01,3.000000,,2013-02-06 15:42:00,
2013-02-06 08:52:00,32.0,31.0,-100.00,West,261,2.0,8.0,96,0.00,,,0.01,3.000000,,2013-02-06 15:52:00,
2013-02-06 09:01:00,32.0,31.0,-100.00,West,261,2.0,8.0,96,0.00,,,0.01,3.000000,,2013-02-06 16:01:00,
2013-02-06 09:11:00,32.0,31.0,-100.00,West,261,2.0,8.0,96,0.00,,,0.01,3.000000,,2013-02-06 16:11:00,
2013-02-06 09:32:00,35.0,33.0,-100.00,SW,225,6.0,12.0,92,0.00,,,0.01,71.000000,,2013-02-06 16:32:00,
2013-02-06 09:42:00,35.0,33.0,-100.00,SW,225,6.0,12.0,92,0.00,,,0.01,71.000000,,2013-02-06 16:42:00,
2013-02-06 09:52:00,35.0,33.0,-100.00,SW,225,6.0,12.0,92,0.00,,,0.01,71.000000,,2013-02-06 16:52:00,
2013-02-06 10:01:00,35.0,33.0,-100.00,SW,225,6.0,12.0,92,0.00,,,0.01,71.000000,,2013-02-06 17:01:00,
2013-02-06 10:11:00,35.0,33.0,-100.00,SW,225,6.0,12.0,92,0.00,,,0.01,71.000000,,2013-02-06 17:11:00,
2013-02-06 10:32:00,36.0,32.0,-100.00,SSW,213,7.0,12.0,86,0.01,,,0.02,122.000000,,2013-02-06 17:32:00,
2013-02-06 10:42:00,36.0,32.0,-100.00,SSW,213,7.0,12.0,86,0.01,,,0.02,122.000000,,2013-02-06 17:42:00,
2013-02-06 10:52:00,36.0,32.0,-100.00,SSW,213,7.0,12.0,86,0.01,,,0.02,122.000000,,2013-02-06 17:52:00,
2013-02-06 11:01:00,36.0,32.0,-100.00,SSW,213,7.0,12.0,86,0.01,,,0.02,122.000000,,2013-02-06 18:01:00,
2013-02-06 11:11:00,36.0,32.0,-100.00,SSW,213,7.0,12.0,86,0.01,,,0.02,122.000000,,2013-02-06 18:11:00,
2013-02-06 11:33:00,38.0,31.0,-100.00,SSW,199,5.0,13.0,76,0.00,,,0.02,351.000000,,2013-02-06 18:33:00,
2013-02-06 11:42:00,38.0,31.0,-100.00,SSW,199,5.0,13.0,76,0.00,,,0.02,351.000000,,2013-02-06 18:42:00,
2013-02-06 11:52:00,38.0,31.0,-100.00,SSW,199,5.0,13.0,76,0.00,,,0.02,351.000000,,2013-02-06 18:52:00,
2013-02-06 12:01:00,38.0,31.0,-100.00,SSW,199,5.0,13.0,76,0.00,,,0.02,351.000000,,2013-02-06 19:01:00,
2013-02-06 12:11:00,38.0,31.0,-100.00,SSW,199,5.0,13.0,76,0.00,,,0.02,351.000000,,2013-02-06 19:11:00,
2013-02-06 12:42:00,39.0,33.0,-100.00,SW,230,4.0,9.0,79,0.00,,,0.02,166.000000,,2013-02-06 19:42:00,
2013-02-06 12:52:00,39.0,33.0,-100.00,SW,230,4.0,9.0,79,0.00,,,0.02,166.000000,,2013-02-06 19:52:00,
2013-02-06 13:01:00,39.0,33.0,-100.00,SW,230,4.0,9.0,79,0.00,,,0.02,166.000000,,2013-02-06 20:01:00,
2013-02-06 13:11:00,39.0,33.0,-100.00,SW,230,4.0,9.0,79,0.00,,,0.02,166.000000,,2013-02-06 20:11:00,
2013-02-06 13:42:00,40.0,33.0,-100.00,SSW,207,7.0,11.0,77,0.00,,,0.02,238.000000,,2013-02-06 20:42:00,
2013-02-06 13:52:00,40.0,33.0,-100.00,SSW,207,7.0,11.0,77,0.00,,,0.02,238.000000,,2013-02-06 20:52:00,
2013-02-06 14:01:00,40.0,33.0,-100.00,SSW,207,7.0,11.0,77,0.00,,,0.02,238.000000,,2013-02-06 21:01:00,
2013-02-06 14:11:00,40.0,33.0,-100.00,SSW,207,7.0,11.0,77,0.00,,,0.02,238.000000,,2013-02-06 21:11:00,
2013-02-06 14:32:00,44.0,32.0,-100.00,SSW,206,6.0,11.0,62,0.00,,,0.02,381.000000,,2013-02-06 21:32:00,
2013-02-06 14:42:00,44.0,32.0,-100.00,SSW,206,6.0,11.0,62,0.00,,,0.02,381.000000,,2013-02-06 21:42:00,
2013-02-06 14:52:00,44.0,32.0,-100.00,SSW,206,6.0,11.0,62,0.00,,,0.02,381.000000,,2013-02-06 21:52:00,
2013-02-06 15:01:00,44.0,32.0,-100.00,SSW,206,6.0,11.0,62,0.00,,,0.02,381.000000,,2013-02-06 22:01:00,
2013-02-06 15:11:00,44.0,32.0,-100.00,SSW,206,6.0,11.0,62,0.00,,,0.02,381.000000,,2013-02-06 22:11:00,
2013-02-06 15:42:00,41.0,28.0,-100.00,South,175,4.0,12.0,59,0.00,,,0.02,476.000000,,2013-02-06 22:42:00,
2013-02-06 15:52:00,41.0,28.0,-100.00,South,175,4.0,12.0,59,0.00,,,0.02,476.000000,,2013-02-06 22:52:00,
2013-02-06 16:01:00,41.0,28.0,-100.00,South,175,4.0,12.0,59,0.00,,,0.02,476.000000,,2013-02-06 23:01:00,
2013-02-06 16:11:00,41.0,28.0,-100.00,South,175,4.0,12.0,59,0.00,,,0.02,476.000000,,2013-02-06 23:11:00,
2013-02-06 16:32:00,43.0,27.0,-100.00,West,275,3.0,7.0,53,0.00,,,0.02,221.000000,,2013-02-06 23:32:00,
2013-02-06 16:42:00,43.0,27.0,-100.00,West,275,3.0,7.0,53,0.00,,,0.02,221.000000,,2013-02-06 23:42:00,
2013-02-06 16:52:00,43.0,27.0,-100.00,West,275,3.0,7.0,53,0.00,,,0.02,221.000000,,2013-02-06 23:52:00,
2013-02-06 17:01:00,43.0,27.0,-100.00,West,275,3.0,7.0,53,0.00,,,0.02,221.000000,,2013-02-07 00:01:00,
2013-02-06 17:11:00,43.0,27.0,-100.00,West,275,3.0,7.0,53,0.00,,,0.02,221.000000,,2013-02-07 00:11:00,
2013-02-06 17:32:00,38.0,23.0,-100.00,SSE,148,2.0,5.0,55,0.00,,,0.02,88.000000,,2013-02-07 00:32:00,
2013-02-06 17:42:00,38.0,23.0,-100.00,SSE,148,2.0,5.0,55,0.00,,,0.02,88.000000,,2013-02-07 00:42:00,
2013-02-06 17:52:00,38.0,23.0,-100.00,SSE,148,2.0,5.0,55,0.00,,,0.02,88.000000,,2013-02-07 00:52:00,
2013-02-06 18:01:00,38.0,23.0,-100.00,SSE,148,2.0,5.0,55,0.00,,,0.02,88.000000,,2013-02-07 01:01:00,
2013-02-06 18:11:00,38.0,23.0,-100.00,SSE,148,2.0,5.0,55,0.00,,,0.02,88.000000,,2013-02-07 01:11:00,
2013-02-06 18:32:00,34.0,28.0,-100.00,SSE,153,2.0,5.0,79,0.00,,,0.02,10.000000,,2013-02-07 01:32:00,
2013-02-06 18:42:00,34.0,28.0,-100.00,SSE,153,2.0,5.0,79,0.00,,,0.02,10.000000,,2013-02-07 01:42:00,
2013-02-06 18:52:00,34.0,28.0,-100.00,SSE,153,2.0,5.0,79,0.00,,,0.02,10.000000,,2013-02-07 01:52:00,
2013-02-06 19:01:00,34.0,28.0,-100.00,SSE,153,2.0,5.0,79,0.00,,,0.02,10.000000,,2013-02-07 02:01:00,
2013-02-06 19:11:00,34.0,28.0,-100.00,SSE,153,2.0,5.0,79,0.00,,,0.02,10.000000,,2013-02-07 02:11:00,
2013-02-06 19:32:00,30.0,27.0,-100.00,ENE,78,2.0,5.0,88,0.00,,,0.02,0.000000,,2013-02-07 02:32:00,
2013-02-06 19:42:00,30.0,27.0,-100.00,ENE,78,2.0,5.0,88,0.00,,,0.02,0.000000,,2013-02-07 02:42:00,
2013-02-06 19:52:00,30.0,27.0,-100.00,ENE,78,2.0,5.0,88,0.00,,,0.02,0.000000,,2013-02-07 02:52:00,
2013-02-06 20:01:00,30.0,27.0,-100.00,ENE,78,2.0,5.0,88,0.00,,,0.02,0.000000,,2013-02-07 03:01:00,
2013-02-06 20:11:00,30.0,27.0,-100.00,ENE,78,2.0,5.0,88,0.00,,,0.02,0.000000,,2013-02-07 03:11:00,
2013-02-06 20:32:00,27.0,24.0,-100.00,ESE,119,2.0,5.0,88,0.00,,,0.02,0.000000,,2013-02-07 03:32:00,
2013-02-06 20:42:00,27.0,24.0,-100.00,ESE,119,2.0,5.0,88,0.00,,,0.02,0.000000,,2013-02-07 03:42:00,
2013-02-06 20:52:00,27.0,24.0,-100.00,ESE,119,2.0,5.0,88,0.00,,,0.02,0.000000,,2013-02-07 03:52:00,
2013-02-06 21:01:00,27.0,24.0,-100.00,ESE,119,2.0,5.0,88,0.00,,,0.02,0.000000,,2013-02-07 04:01:00,
2013-02-06 21:11:00,27.0,24.0,-100.00,ESE,119,2.0,5.0,88,0.00,,,0.02,0.000000,,2013-02-07 04:11:00,
2013-02-06 21:32:00,28.0,26.0,-100.00,SSW,207,3.0,4.0,93,0.00,,,0.02,0.000000,,2013-02-07 04:32:00,
2013-02-06 21:42:00,28.0,26.0,-100.00,SSW,207,3.0,4.0,93,0.00,,,0.02,0.000000,,2013-02-07 04:42:00,
2013-02-06 21:53:00,28.0,26.0,-100.00,SSW,207,3.0,4.0,93,0.00,,,0.02,0.000000,,2013-02-07 04:53:00,
2013-02-06 22:01:00,28.0,26.0,-100.00,SSW,207,3.0,4.0,93,0.00,,,0.02,0.000000,,2013-02-07 05:01:00,
2013-02-06 22:11:00,28.0,26.0,-100.00,SSW,207,3.0,4.0,93,0.00,,,0.02,0.000000,,2013-02-07 05:11:00,
2013-02-06 22:32:00,25.0,23.0,-100.00,ENE,76,0.0,4.0,91,0.00,,,0.02,0.000000,,2013-02-07 05:32:00,
2013-02-06 22:42:00,25.0,23.0,-100.00,ENE,76,0.0,4.0,91,0.00,,,0.02,0.000000,,2013-02-07 05:42:00,
2013-02-06 22:52:00,25.0,23.0,-100.00,ENE,76,0.0,4.0,91,0.00,,,0.02,0.000000,,2013-02-07 05:52:00,
2013-02-06 23:01:00,25.0,23.0,-100.00,ENE,76,0.0,4.0,91,0.00,,,0.02,0.000000,,2013-02-07 06:01:00,
2013-02-06 23:11:00,25.0,23.0,-100.00,ENE,76,0.0,4.0,91,0.00,,,0.02,0.000000,,2013-02-07 06:11:00,
2013-02-06 23:32:00,24.0,23.0,-100.00,West,270,2.0,4.0,94,0.00,,,0.02,0.000000,,2013-02-07 06:32:00,
2013-02-06 23:43:00,24.0,23.0,-100.00,West,270,2.0,4.0,94,0.00,,,0.02,0.000000,,2013-02-07 06:43:00,
2013-02-06 23:52:00,24.0,23.0,-100.00,West,270,2.0,4.0,94,0.00,,,0.02,0.000000,,2013-02-07 06:52:00,